Location: Most
(50.5133°N, 13.6207°E)
Time: 23:42:08
(UTC+01:00)

NOAA 15 - Visible Passes

Search period start: 01 December 2021 00:00
Search period end: 11 December 2021 00:00
Orbit: 797 x 813 km, 98.7° (Epoch: 01 December)

Date Brightness Start Highest point End Pass type
(mag) Time Alt. Az. Time Alt. Az. Time Alt. Az.
01 Dec 7.4 06:42:10 10° NE 06:45:47 18° E 06:49:23 10° SE visible
01 Dec 4.8 18:06:20 10° SE 18:11:21 46° ENE 18:16:24 10° N visible
01 Dec 6.2 19:46:39 10° SSW 19:51:18 31° W 19:55:58 10° NNW visible
02 Dec 7.8 06:18:36 10° ENE 06:20:11 11° E 06:21:45 10° ESE visible
02 Dec 5.3 17:41:45 10° ESE 17:46:20 31° ENE 17:50:54 10° N visible
02 Dec 5.4 19:20:49 10° S 19:25:55 48° W 19:31:03 10° NNW visible
03 Dec 5.8 17:17:31 10° ESE 17:21:23 21° ENE 17:25:15 10° N visible
03 Dec 4.7 18:55:20 10° S 19:00:38 76° WSW 19:05:56 10° NNW visible
03 Dec 7.4 20:39:07 10° WSW 20:41:18 12° W 20:43:30 10° WNW visible
04 Dec 6.8 07:05:42 10° NE 07:10:13 28° E 07:14:42 10° SSE visible
04 Dec 6.1 16:53:46 10° E 16:56:32 14° NE 16:59:17 10° NNE visible
04 Dec 4.4 18:30:10 10° SSE 18:35:25 70° ENE 18:40:41 10° N visible
04 Dec 6.9 20:11:52 10° SW 20:15:43 20° W 20:19:35 10° NW visible
05 Dec 7.4 06:41:09 10° NE 06:44:43 18° E 06:48:14 10° SE visible
05 Dec 4.8 18:05:18 10° SE 18:10:19 45° ENE 18:15:19 10° N visible
05 Dec 6.2 19:45:34 10° SSW 19:50:14 31° W 19:54:56 10° NNW visible
06 Dec 7.8 06:17:42 10° ENE 06:19:06 11° E 06:20:30 10° E visible
06 Dec 5.3 17:40:44 10° ESE 17:45:17 30° ENE 17:49:50 10° N visible
06 Dec 5.4 19:19:45 10° S 19:24:51 49° W 19:29:59 10° NNW visible
07 Dec 5.8 17:16:32 10° ESE 17:20:20 21° NE 17:24:09 10° N visible
07 Dec 4.6 18:54:17 10° SSE 18:59:34 78° WSW 19:04:52 10° NNW visible
07 Dec 7.4 20:37:56 10° WSW 20:40:13 13° W 20:42:31 10° WNW visible
08 Dec 6.9 07:04:40 10° NE 07:09:09 28° E 07:13:36 10° SSE visible
08 Dec 6.2 16:52:49 10° E 16:55:29 14° NE 16:58:10 10° NNE visible
08 Dec 4.4 18:29:08 10° SSE 18:34:22 69° ENE 18:39:37 10° N visible
08 Dec 6.9 20:10:46 10° SW 20:14:38 21° W 20:18:33 10° NW visible
09 Dec 7.4 06:40:08 10° NE 06:43:38 18° E 06:47:06 10° SE visible
09 Dec 4.8 18:04:17 10° SE 18:09:15 44° ENE 18:14:15 10° N visible
09 Dec 6.2 19:44:29 10° SSW 19:49:10 32° W 19:53:53 10° NNW visible
10 Dec 7.8 06:16:50 10° ENE 06:18:01 11° E 06:19:12 10° E visible
10 Dec 5.3 17:39:43 10° ESE 17:44:14 30° ENE 17:48:44 10° N visible
10 Dec 5.3 19:18:41 10° S 19:23:47 50° W 19:28:56 10° NNW visible
